Year,Month,Day,Hour,Minute,Value (Times are PST for temperature in C)
2010,07,20,00,00,13.40
2010,07,20,00,01,13.40
2010,07,20,00,02,13.40
2010,07,20,00,03,13.40
2010,07,20,00,04,13.40
2010,07,20,00,05,13.40
2010,07,20,00,06,13.30
2010,07,20,00,07,13.30
2010,07,20,00,08,13.30
2010,07,20,00,09,13.30
2010,07,20,00,10,13.30
2010,07,20,00,11,13.30
2010,07,20,00,12,13.30
2010,07,20,00,13,13.30
2010,07,20,00,14,13.30
2010,07,20,00,15,13.30
2010,07,20,00,16,13.30
2010,07,20,00,17,13.30
2010,07,20,00,18,13.20
2010,07,20,00,19,13.20
2010,07,20,00,20,13.20
2010,07,20,00,21,13.20
2010,07,20,00,22,13.20
2010,07,20,00,23,13.20
2010,07,20,00,24,13.20
2010,07,20,00,25,13.20
2010,07,20,00,26,13.20
2010,07,20,00,27,13.20
2010,07,20,00,28,13.20
2010,07,20,00,29,13.20
2010,07,20,00,30,13.20
2010,07,20,00,31,13.20
2010,07,20,00,32,13.20
2010,07,20,00,33,13.20
2010,07,20,00,34,13.20
2010,07,20,00,35,13.10
2010,07,20,00,36,13.10
2010,07,20,00,37,13.10
2010,07,20,00,38,13.10
2010,07,20,00,39,13.10
2010,07,20,00,40,13.10
2010,07,20,00,41,13.20
2010,07,20,00,42,13.20
2010,07,20,00,43,13.20
2010,07,20,00,44,13.20
2010,07,20,00,45,13.20
2010,07,20,00,46,13.20
2010,07,20,00,47,13.20
2010,07,20,00,48,13.20
2010,07,20,00,49,13.20
2010,07,20,00,50,13.20
2010,07,20,00,51,13.20
2010,07,20,00,52,13.30
2010,07,20,00,53,13.30
2010,07,20,00,54,13.30
2010,07,20,00,55,13.40
2010,07,20,00,56,13.40
2010,07,20,00,57,13.40
2010,07,20,00,58,13.40
2010,07,20,00,59,13.40
2010,07,20,01,00,13.50
2010,07,20,01,01,13.50
2010,07,20,01,02,13.50
2010,07,20,01,03,13.50
2010,07,20,01,04,13.50
2010,07,20,01,05,13.60
2010,07,20,01,06,13.60
2010,07,20,01,07,13.60
2010,07,20,01,08,13.70
2010,07,20,01,09,13.70
2010,07,20,01,10,13.80
2010,07,20,01,11,13.80
2010,07,20,01,12,13.90
2010,07,20,01,13,13.90
2010,07,20,01,14,14.00
2010,07,20,01,15,14.00
2010,07,20,01,16,14.00
2010,07,20,01,17,14.10
2010,07,20,01,18,14.10
2010,07,20,01,19,14.20
2010,07,20,01,20,14.30
2010,07,20,01,21,14.30
2010,07,20,01,22,14.40
2010,07,20,01,23,14.50
2010,07,20,01,24,14.60
2010,07,20,01,25,14.60
2010,07,20,01,26,14.70
2010,07,20,01,27,14.70
2010,07,20,01,28,14.80
2010,07,20,01,29,14.80
2010,07,20,01,30,14.80
2010,07,20,01,31,14.90
2010,07,20,01,32,15.00
2010,07,20,01,33,15.00
2010,07,20,01,34,15.10
2010,07,20,01,35,15.10
2010,07,20,01,36,15.10
2010,07,20,01,37,15.20
2010,07,20,01,38,15.20
2010,07,20,01,39,15.20
2010,07,20,01,40,15.20
2010,07,20,01,41,15.20
2010,07,20,01,42,15.30
2010,07,20,01,43,15.20
2010,07,20,01,44,15.30
2010,07,20,01,45,15.30
2010,07,20,01,46,15.30
2010,07,20,01,47,15.20
2010,07,20,01,48,15.20
2010,07,20,01,49,15.20
2010,07,20,01,50,15.20
2010,07,20,01,51,15.20
2010,07,20,01,52,15.20
2010,07,20,01,53,15.20
2010,07,20,01,54,15.20
2010,07,20,01,55,15.30
2010,07,20,01,56,15.30
2010,07,20,01,57,15.30
2010,07,20,01,58,15.30
2010,07,20,01,59,15.30
2010,07,20,02,00,15.30
2010,07,20,02,01,15.30
2010,07,20,02,02,15.40
2010,07,20,02,03,15.40
2010,07,20,02,04,15.40
2010,07,20,02,05,15.40
2010,07,20,02,06,15.40
2010,07,20,02,07,15.40
2010,07,20,02,08,15.40
2010,07,20,02,09,15.40
2010,07,20,02,10,15.40
2010,07,20,02,11,15.40
2010,07,20,02,12,15.40
2010,07,20,02,13,15.40
2010,07,20,02,14,15.40
2010,07,20,02,15,15.50
2010,07,20,02,16,15.60
2010,07,20,02,17,15.60
2010,07,20,02,18,15.70
2010,07,20,02,19,15.70
2010,07,20,02,20,15.70
2010,07,20,02,21,15.70
2010,07,20,02,22,15.70
2010,07,20,02,23,15.80
2010,07,20,02,24,15.80
2010,07,20,02,25,15.80
2010,07,20,02,26,15.80
2010,07,20,02,27,15.80
2010,07,20,02,28,15.80
2010,07,20,02,29,15.80
2010,07,20,02,30,15.80
2010,07,20,02,31,15.80
2010,07,20,02,32,15.80
2010,07,20,02,33,15.80
2010,07,20,02,34,15.80
2010,07,20,02,35,15.80
2010,07,20,02,36,15.80
2010,07,20,02,37,15.80
2010,07,20,02,38,15.80
2010,07,20,02,39,15.80
2010,07,20,02,40,15.80
2010,07,20,02,41,15.80
2010,07,20,02,42,15.80
2010,07,20,02,43,15.80
2010,07,20,02,44,15.80
2010,07,20,02,45,15.80
2010,07,20,02,46,15.80
2010,07,20,02,47,15.80
2010,07,20,02,48,15.80
2010,07,20,02,49,15.80
2010,07,20,02,50,15.80
2010,07,20,02,51,15.80
2010,07,20,02,52,15.80
2010,07,20,02,53,15.70
2010,07,20,02,54,15.70
2010,07,20,02,55,15.70
2010,07,20,02,56,15.70
2010,07,20,02,57,15.70
2010,07,20,02,58,15.70
2010,07,20,02,59,15.80
2010,07,20,03,00,15.70
2010,07,20,03,01,15.70
2010,07,20,03,02,15.70
2010,07,20,03,03,15.70
2010,07,20,03,04,15.70
2010,07,20,03,05,15.70
2010,07,20,03,06,15.70
2010,07,20,03,07,15.70
2010,07,20,03,08,15.70
2010,07,20,03,09,15.70
2010,07,20,03,10,15.70
2010,07,20,03,11,15.70
2010,07,20,03,12,15.70
2010,07,20,03,13,15.70
2010,07,20,03,14,15.60
2010,07,20,03,15,15.60
2010,07,20,03,16,15.60
2010,07,20,03,17,15.60
2010,07,20,03,18,15.60
2010,07,20,03,19,15.60
2010,07,20,03,20,15.50
2010,07,20,03,21,15.50
2010,07,20,03,22,15.50
2010,07,20,03,23,15.40
2010,07,20,03,24,15.40
2010,07,20,03,25,15.40
2010,07,20,03,26,15.40
2010,07,20,03,27,15.40
2010,07,20,03,28,15.30
2010,07,20,03,29,15.30
2010,07,20,03,30,15.30
2010,07,20,03,31,15.30
2010,07,20,03,32,15.30
2010,07,20,03,33,15.30
2010,07,20,03,34,15.20
2010,07,20,03,35,15.20
2010,07,20,03,36,15.20
2010,07,20,03,37,15.20
2010,07,20,03,38,15.10
2010,07,20,03,39,15.10
2010,07,20,03,40,15.10
2010,07,20,03,41,15.00
2010,07,20,03,42,15.00
2010,07,20,03,43,14.90
2010,07,20,03,44,14.90
2010,07,20,03,45,14.90
2010,07,20,03,46,14.80
2010,07,20,03,47,14.80
2010,07,20,03,48,14.80
2010,07,20,03,49,14.80
2010,07,20,03,50,14.80
2010,07,20,03,51,14.80
2010,07,20,03,52,14.80
2010,07,20,03,53,14.80
2010,07,20,03,54,14.80
2010,07,20,03,55,14.70
2010,07,20,03,56,14.70
2010,07,20,03,57,14.70
2010,07,20,03,58,14.70
2010,07,20,03,59,14.70
2010,07,20,04,00,14.70
2010,07,20,04,01,14.70
2010,07,20,04,02,14.70
2010,07,20,04,03,14.60
2010,07,20,04,04,14.60
2010,07,20,04,05,14.60
2010,07,20,04,06,14.60
2010,07,20,04,07,14.60
2010,07,20,04,08,14.60
2010,07,20,04,09,14.60
2010,07,20,04,10,14.60
2010,07,20,04,11,14.50
2010,07,20,04,12,14.50
2010,07,20,04,13,14.50
2010,07,20,04,14,14.50
2010,07,20,04,15,14.50
2010,07,20,04,16,14.40
2010,07,20,04,17,14.50
2010,07,20,04,18,14.50
2010,07,20,04,19,14.40
2010,07,20,04,20,14.40
2010,07,20,04,21,14.40
2010,07,20,04,22,14.40
2010,07,20,04,23,14.40
2010,07,20,04,24,14.40
2010,07,20,04,25,14.40
2010,07,20,04,26,14.40
2010,07,20,04,27,14.30
2010,07,20,04,28,14.30
2010,07,20,04,29,14.30
2010,07,20,04,30,14.30
2010,07,20,04,31,14.30
2010,07,20,04,32,14.30
2010,07,20,04,33,14.30
2010,07,20,04,34,14.30
2010,07,20,04,35,14.30
2010,07,20,04,36,14.20
2010,07,20,04,37,14.20
2010,07,20,04,38,14.20
2010,07,20,04,39,14.20
2010,07,20,04,40,14.20
2010,07,20,04,41,14.20
2010,07,20,04,42,14.20
2010,07,20,04,43,14.20
2010,07,20,04,44,14.20
2010,07,20,04,45,14.20
2010,07,20,04,46,14.20
2010,07,20,04,47,14.20
2010,07,20,04,48,14.20
2010,07,20,04,49,14.10
2010,07,20,04,50,14.10
2010,07,20,04,51,14.10
2010,07,20,04,52,14.10
2010,07,20,04,53,14.10
2010,07,20,04,54,14.10
2010,07,20,04,55,14.10
2010,07,20,04,56,14.10
2010,07,20,04,57,14.10
2010,07,20,04,58,14.10
2010,07,20,04,59,14.10
2010,07,20,05,00,14.10
2010,07,20,05,01,14.00
2010,07,20,05,02,14.00
2010,07,20,05,03,14.00
2010,07,20,05,04,14.00
2010,07,20,05,05,13.90
2010,07,20,05,06,13.90
2010,07,20,05,07,13.90
2010,07,20,05,08,13.90
2010,07,20,05,09,13.80
2010,07,20,05,10,13.80
2010,07,20,05,11,13.80
2010,07,20,05,12,13.80
2010,07,20,05,13,13.80
2010,07,20,05,14,13.80
2010,07,20,05,15,13.80
2010,07,20,05,16,13.70
2010,07,20,05,17,13.70
2010,07,20,05,18,13.70
2010,07,20,05,19,13.70
2010,07,20,05,20,13.70
2010,07,20,05,21,13.70
2010,07,20,05,22,13.70
2010,07,20,05,23,13.70
2010,07,20,05,24,13.80
2010,07,20,05,25,13.80
2010,07,20,05,26,13.80
2010,07,20,05,27,13.80
2010,07,20,05,28,13.80
2010,07,20,05,29,13.80
2010,07,20,05,30,13.80
2010,07,20,05,31,13.80
2010,07,20,05,32,13.80
2010,07,20,05,33,13.70
2010,07,20,05,34,13.70
2010,07,20,05,35,13.70
2010,07,20,05,36,13.70
2010,07,20,05,37,13.70
2010,07,20,05,38,13.70
2010,07,20,05,39,13.70
2010,07,20,05,40,13.60
2010,07,20,05,41,13.60
2010,07,20,05,42,13.60
2010,07,20,05,43,13.60
2010,07,20,05,44,13.60
2010,07,20,05,45,13.60
2010,07,20,05,46,13.60
2010,07,20,05,47,13.60
2010,07,20,05,48,13.60
2010,07,20,05,49,13.60
2010,07,20,05,50,13.50
2010,07,20,05,51,13.50
2010,07,20,05,52,13.50
2010,07,20,05,53,13.50
2010,07,20,05,54,13.50
2010,07,20,05,55,13.50
2010,07,20,05,56,13.40
2010,07,20,05,57,13.40
2010,07,20,05,58,13.40
2010,07,20,05,59,13.40
2010,07,20,06,00,13.40
2010,07,20,06,01,13.40
2010,07,20,06,02,13.40
2010,07,20,06,03,13.40
2010,07,20,06,04,13.40
2010,07,20,06,05,13.40
2010,07,20,06,06,13.40
2010,07,20,06,07,13.40
2010,07,20,06,08,13.40
2010,07,20,06,09,13.40
2010,07,20,06,10,13.40
2010,07,20,06,11,13.40
2010,07,20,06,12,13.40
2010,07,20,06,13,13.40
2010,07,20,06,14,13.40
2010,07,20,06,15,13.40
2010,07,20,06,16,13.50
2010,07,20,06,17,13.50
2010,07,20,06,18,13.50
2010,07,20,06,19,13.50
2010,07,20,06,20,13.50
2010,07,20,06,21,13.50
2010,07,20,06,22,13.50
2010,07,20,06,23,13.50
2010,07,20,06,24,13.50
2010,07,20,06,25,13.50
2010,07,20,06,26,13.50
2010,07,20,06,27,13.50
2010,07,20,06,28,13.50
2010,07,20,06,29,13.50
2010,07,20,06,30,13.60
2010,07,20,06,31,13.60
2010,07,20,06,32,13.60
2010,07,20,06,33,13.60
2010,07,20,06,34,13.60
2010,07,20,06,35,13.60
2010,07,20,06,36,13.60
2010,07,20,06,37,13.60
2010,07,20,06,38,13.60
2010,07,20,06,39,13.60
2010,07,20,06,40,13.60
2010,07,20,06,41,13.60
2010,07,20,06,42,13.70
2010,07,20,06,43,13.70
2010,07,20,06,44,13.70
2010,07,20,06,45,13.70
2010,07,20,06,46,13.70
2010,07,20,06,47,13.70
2010,07,20,06,48,13.80
2010,07,20,06,49,13.80
2010,07,20,06,50,13.80
2010,07,20,06,51,13.80
2010,07,20,06,52,13.90
2010,07,20,06,53,13.90
2010,07,20,06,54,13.90
2010,07,20,06,55,13.90
2010,07,20,06,56,14.00
2010,07,20,06,57,14.00
2010,07,20,06,58,14.10
2010,07,20,06,59,14.10
2010,07,20,07,00,14.10
2010,07,20,07,01,14.20
2010,07,20,07,02,14.20
2010,07,20,07,03,14.20
2010,07,20,07,04,14.30
2010,07,20,07,05,14.30
2010,07,20,07,06,14.30
2010,07,20,07,07,14.30
2010,07,20,07,08,14.40
2010,07,20,07,09,14.40
2010,07,20,07,10,14.40
2010,07,20,07,11,14.50
2010,07,20,07,12,14.50
2010,07,20,07,13,14.60
2010,07,20,07,14,14.60
2010,07,20,07,15,14.60
2010,07,20,07,16,14.60
2010,07,20,07,17,14.60
2010,07,20,07,18,14.60
2010,07,20,07,19,14.70
2010,07,20,07,20,14.70
2010,07,20,07,21,14.70
2010,07,20,07,22,14.80
2010,07,20,07,23,14.80
2010,07,20,07,24,14.80
2010,07,20,07,25,14.80
2010,07,20,07,26,14.80
2010,07,20,07,27,14.90
2010,07,20,07,28,14.90
2010,07,20,07,29,14.90
2010,07,20,07,30,14.90
2010,07,20,07,31,14.90
2010,07,20,07,32,15.00
2010,07,20,07,33,15.00
2010,07,20,07,34,15.10
2010,07,20,07,35,15.10
2010,07,20,07,36,15.10
2010,07,20,07,37,15.10
2010,07,20,07,38,15.10
2010,07,20,07,39,15.20
2010,07,20,07,40,15.20
2010,07,20,07,41,15.20
2010,07,20,07,42,15.20
2010,07,20,07,43,15.20
2010,07,20,07,44,15.20
2010,07,20,07,45,15.20
2010,07,20,07,46,15.20
2010,07,20,07,47,15.20
2010,07,20,07,48,15.20
2010,07,20,07,49,15.20
2010,07,20,07,50,15.20
2010,07,20,07,51,15.20
2010,07,20,07,52,15.20
2010,07,20,07,53,15.20
2010,07,20,07,54,15.20
2010,07,20,07,55,15.20
2010,07,20,07,56,15.20
2010,07,20,07,57,15.20
2010,07,20,07,58,15.20
2010,07,20,07,59,15.20
2010,07,20,08,00,15.20
2010,07,20,08,01,15.20
2010,07,20,08,02,15.30
2010,07,20,08,03,15.30
2010,07,20,08,04,15.30
2010,07,20,08,05,15.30
2010,07,20,08,06,15.40
2010,07,20,08,07,15.40
2010,07,20,08,08,15.40
2010,07,20,08,09,15.50
2010,07,20,08,10,15.50
2010,07,20,08,11,15.60
2010,07,20,08,12,15.60
2010,07,20,08,13,15.60
2010,07,20,08,14,15.60
2010,07,20,08,15,15.70
2010,07,20,08,16,15.70
2010,07,20,08,17,15.70
2010,07,20,08,18,15.70
2010,07,20,08,19,15.80
2010,07,20,08,20,15.80
2010,07,20,08,21,15.80
2010,07,20,08,22,15.80
2010,07,20,08,23,15.80
2010,07,20,08,24,15.80
2010,07,20,08,25,15.80
2010,07,20,08,26,15.80
2010,07,20,08,27,15.80
2010,07,20,08,28,15.80
2010,07,20,08,29,15.80
2010,07,20,08,30,15.80
2010,07,20,08,31,15.80
2010,07,20,08,32,15.80
2010,07,20,08,33,15.80
2010,07,20,08,34,15.80
2010,07,20,08,35,15.80
2010,07,20,08,36,15.80
2010,07,20,08,37,15.80
2010,07,20,08,38,15.90
2010,07,20,08,39,15.90
2010,07,20,08,40,15.90
2010,07,20,08,41,15.90
2010,07,20,08,42,15.90
2010,07,20,08,43,15.90
2010,07,20,08,44,15.90
2010,07,20,08,45,15.90
2010,07,20,08,46,16.00
2010,07,20,08,47,16.00
2010,07,20,08,48,16.10
2010,07,20,08,49,16.10
2010,07,20,08,50,16.10
2010,07,20,08,51,16.10
2010,07,20,08,52,16.10
2010,07,20,08,53,16.10
2010,07,20,08,54,16.10
2010,07,20,08,55,16.10
2010,07,20,08,56,16.10
2010,07,20,08,57,16.10
2010,07,20,08,58,16.00
2010,07,20,08,59,16.00
2010,07,20,09,00,16.00
2010,07,20,09,01,16.00
2010,07,20,09,02,15.90
2010,07,20,09,03,15.90
2010,07,20,09,04,15.90
2010,07,20,09,05,15.90
2010,07,20,09,06,15.90
2010,07,20,09,07,15.90
2010,07,20,09,08,15.90
2010,07,20,09,09,15.90
2010,07,20,09,10,15.90
2010,07,20,09,11,15.90
2010,07,20,09,12,15.90
2010,07,20,09,13,15.90
2010,07,20,09,14,15.90
2010,07,20,09,15,15.90
2010,07,20,09,16,16.00
2010,07,20,09,17,16.00
2010,07,20,09,18,16.00
2010,07,20,09,19,16.00
2010,07,20,09,20,16.00
2010,07,20,09,21,16.00
2010,07,20,09,22,16.00
2010,07,20,09,23,16.00
2010,07,20,09,24,16.00
2010,07,20,09,25,16.10
2010,07,20,09,26,16.10
2010,07,20,09,27,16.10
2010,07,20,09,28,16.10
2010,07,20,09,29,16.20
2010,07,20,09,30,16.20
2010,07,20,09,31,16.20
2010,07,20,09,32,16.20
2010,07,20,09,33,16.30
2010,07,20,09,34,16.30
2010,07,20,09,35,16.30
2010,07,20,09,36,16.30
2010,07,20,09,37,16.30
2010,07,20,09,38,16.30
2010,07,20,09,39,16.20
2010,07,20,09,40,16.20
2010,07,20,09,41,16.20
2010,07,20,09,42,16.20
2010,07,20,09,43,16.20
2010,07,20,09,44,16.20
2010,07,20,09,45,16.30
2010,07,20,09,46,16.30
2010,07,20,09,47,16.30
2010,07,20,09,48,16.30
2010,07,20,09,49,16.30
2010,07,20,09,50,16.30
2010,07,20,09,51,16.30
2010,07,20,09,52,16.30
2010,07,20,09,53,16.30
2010,07,20,09,54,16.30
2010,07,20,09,55,16.30
2010,07,20,09,56,16.40
2010,07,20,09,57,16.40
2010,07,20,09,58,16.40
2010,07,20,09,59,16.40
2010,07,20,10,00,16.50
2010,07,20,10,01,16.50
2010,07,20,10,02,16.60
2010,07,20,10,03,16.60
2010,07,20,10,04,16.70
2010,07,20,10,05,16.80
2010,07,20,10,06,16.80
2010,07,20,10,07,16.90
2010,07,20,10,08,16.90
2010,07,20,10,09,16.90
2010,07,20,10,10,16.90
2010,07,20,10,11,16.90
2010,07,20,10,12,17.00
2010,07,20,10,13,17.00
2010,07,20,10,14,17.10
2010,07,20,10,15,17.10
2010,07,20,10,16,17.20
2010,07,20,10,17,17.30
2010,07,20,10,18,17.30
2010,07,20,10,19,17.30
2010,07,20,10,20,17.30
2010,07,20,10,21,17.30
2010,07,20,10,22,17.30
2010,07,20,10,23,17.30
2010,07,20,10,24,17.30
2010,07,20,10,25,17.40
2010,07,20,10,26,17.40
2010,07,20,10,27,17.50
2010,07,20,10,28,17.50
2010,07,20,10,29,17.50
2010,07,20,10,30,17.60
2010,07,20,10,31,17.60
2010,07,20,10,32,17.60
2010,07,20,10,33,17.60
2010,07,20,10,34,17.60
2010,07,20,10,35,17.70
2010,07,20,10,36,17.70
2010,07,20,10,37,17.70
2010,07,20,10,38,17.80
2010,07,20,10,39,17.80
2010,07,20,10,40,17.80
2010,07,20,10,41,17.70
2010,07,20,10,42,17.70
2010,07,20,10,43,17.70
2010,07,20,10,44,17.60
2010,07,20,10,45,17.60
2010,07,20,10,46,17.50
2010,07,20,10,47,17.50
2010,07,20,10,48,17.50
2010,07,20,10,49,17.60
2010,07,20,10,50,17.60
2010,07,20,10,51,17.60
2010,07,20,10,52,17.70
2010,07,20,10,53,17.70
2010,07,20,10,54,17.70
2010,07,20,10,55,17.70
2010,07,20,10,56,17.70
2010,07,20,10,57,17.70
2010,07,20,10,58,17.70
2010,07,20,10,59,17.70
2010,07,20,11,00,17.70
2010,07,20,11,01,17.80
2010,07,20,11,02,17.90
2010,07,20,11,03,17.90
2010,07,20,11,04,17.90
2010,07,20,11,05,17.90
2010,07,20,11,06,18.00
2010,07,20,11,07,18.10
2010,07,20,11,08,18.30
2010,07,20,11,09,18.30
2010,07,20,11,10,18.30
2010,07,20,11,11,18.30
2010,07,20,11,12,18.40
2010,07,20,11,13,18.50
2010,07,20,11,14,18.60
2010,07,20,11,15,18.70
2010,07,20,11,16,18.80
2010,07,20,11,17,18.80
2010,07,20,11,18,18.90
2010,07,20,11,19,19.00
2010,07,20,11,20,19.10
2010,07,20,11,21,19.20
2010,07,20,11,22,19.20
2010,07,20,11,23,19.20
2010,07,20,11,24,19.20
2010,07,20,11,25,19.20
2010,07,20,11,26,19.30
2010,07,20,11,27,19.30
2010,07,20,11,28,19.40
2010,07,20,11,29,19.50
2010,07,20,11,30,19.60
2010,07,20,11,31,19.70
2010,07,20,11,32,19.70
2010,07,20,11,33,19.70
2010,07,20,11,34,19.60
2010,07,20,11,35,19.60
2010,07,20,11,36,19.60
2010,07,20,11,37,19.50
2010,07,20,11,38,19.50
2010,07,20,11,39,19.40
2010,07,20,11,40,19.40
2010,07,20,11,41,19.30
2010,07,20,11,42,19.40
2010,07,20,11,43,19.40
2010,07,20,11,44,19.40
2010,07,20,11,45,19.40
2010,07,20,11,46,19.30
2010,07,20,11,47,19.30
2010,07,20,11,48,19.30
2010,07,20,11,49,19.30
2010,07,20,11,50,19.40
2010,07,20,11,51,19.50
2010,07,20,11,52,19.60
2010,07,20,11,53,19.50
2010,07,20,11,54,19.40
2010,07,20,11,55,19.40
2010,07,20,11,56,19.30
2010,07,20,11,57,19.20
2010,07,20,11,58,19.20
2010,07,20,11,59,19.20
2010,07,20,12,00,19.20
2010,07,20,12,01,19.20
2010,07,20,12,02,19.30
2010,07,20,12,03,19.30
2010,07,20,12,04,19.30
2010,07,20,12,05,19.30
2010,07,20,12,06,19.30
2010,07,20,12,07,19.30
2010,07,20,12,08,19.40
2010,07,20,12,09,19.50
2010,07,20,12,10,19.60
2010,07,20,12,11,19.60
2010,07,20,12,12,19.70
2010,07,20,12,13,19.80
2010,07,20,12,14,19.90
2010,07,20,12,15,19.90
2010,07,20,12,16,19.90
2010,07,20,12,17,19.90
2010,07,20,12,18,19.80
2010,07,20,12,19,19.90
2010,07,20,12,20,19.90
2010,07,20,12,21,19.90
2010,07,20,12,22,20.00
2010,07,20,12,23,20.00
2010,07,20,12,24,20.10
2010,07,20,12,25,20.10
2010,07,20,12,26,20.10
2010,07,20,12,27,20.10
2010,07,20,12,28,20.20
2010,07,20,12,29,20.20
2010,07,20,12,30,20.20
2010,07,20,12,31,20.20
2010,07,20,12,32,20.20
2010,07,20,12,33,20.10
2010,07,20,12,34,20.10
2010,07,20,12,35,20.10
2010,07,20,12,36,20.10
2010,07,20,12,37,20.00
2010,07,20,12,38,20.00
2010,07,20,12,39,20.00
2010,07,20,12,40,20.00
2010,07,20,12,41,20.10
2010,07,20,12,42,20.10
2010,07,20,12,43,20.10
2010,07,20,12,44,20.20
2010,07,20,12,45,20.20
2010,07,20,12,46,20.20
2010,07,20,12,47,20.20
2010,07,20,12,48,20.20
2010,07,20,12,49,20.20
2010,07,20,12,50,20.20
2010,07,20,12,51,20.30
2010,07,20,12,52,20.40
2010,07,20,12,53,20.40
2010,07,20,12,54,20.50
2010,07,20,12,55,20.50
2010,07,20,12,56,20.50
2010,07,20,12,57,20.40
2010,07,20,12,58,20.40
2010,07,20,12,59,20.40
2010,07,20,13,00,20.50
2010,07,20,13,01,20.50
2010,07,20,13,02,20.50
2010,07,20,13,03,20.60
2010,07,20,13,04,20.70
2010,07,20,13,05,20.80
2010,07,20,13,06,20.90
2010,07,20,13,07,20.90
2010,07,20,13,08,20.90
2010,07,20,13,09,20.90
2010,07,20,13,10,20.90
2010,07,20,13,11,20.80
2010,07,20,13,12,20.80
2010,07,20,13,13,20.80
2010,07,20,13,14,20.80
2010,07,20,13,15,20.80
2010,07,20,13,16,20.90
2010,07,20,13,17,20.90
2010,07,20,13,18,20.90
2010,07,20,13,19,21.00
2010,07,20,13,20,21.10
2010,07,20,13,21,21.20
2010,07,20,13,22,21.20
2010,07,20,13,23,21.30
2010,07,20,13,24,21.20
2010,07,20,13,25,21.20
2010,07,20,13,26,21.20
2010,07,20,13,27,21.20
2010,07,20,13,28,21.20
2010,07,20,13,29,21.20
2010,07,20,13,30,21.30
2010,07,20,13,31,21.50
2010,07,20,13,32,21.70
2010,07,20,13,33,21.80
2010,07,20,13,34,21.80
2010,07,20,13,35,21.80
2010,07,20,13,36,21.70
2010,07,20,13,37,21.70
2010,07,20,13,38,21.60
2010,07,20,13,39,21.60
2010,07,20,13,40,21.60
2010,07,20,13,41,21.70
2010,07,20,13,42,21.70
2010,07,20,13,43,21.60
2010,07,20,13,44,21.60
2010,07,20,13,45,21.60
2010,07,20,13,46,21.60
2010,07,20,13,47,21.70
2010,07,20,13,48,21.70
2010,07,20,13,49,21.50
2010,07,20,13,50,21.40
2010,07,20,13,51,21.30
2010,07,20,13,52,21.30
2010,07,20,13,53,21.30
2010,07,20,13,54,21.40
2010,07,20,13,55,21.40
2010,07,20,13,56,21.50
2010,07,20,13,57,21.50
2010,07,20,13,58,21.50
2010,07,20,13,59,21.40
2010,07,20,14,00,21.40
2010,07,20,14,01,21.30
2010,07,20,14,02,21.20
2010,07,20,14,03,21.10
2010,07,20,14,04,21.10
2010,07,20,14,05,21.10
2010,07,20,14,06,21.00
2010,07,20,14,07,21.00
2010,07,20,14,08,20.90
2010,07,20,14,09,20.90
2010,07,20,14,10,20.80
2010,07,20,14,11,20.80
2010,07,20,14,12,20.90
2010,07,20,14,13,20.90
2010,07,20,14,14,21.00
2010,07,20,14,15,21.10
2010,07,20,14,16,21.20
2010,07,20,14,17,21.30
2010,07,20,14,18,21.30
2010,07,20,14,19,21.40
2010,07,20,14,20,21.50
2010,07,20,14,21,21.50
2010,07,20,14,22,21.70
2010,07,20,14,23,21.80
2010,07,20,14,24,21.90
2010,07,20,14,25,22.00
2010,07,20,14,26,22.00
2010,07,20,14,27,22.00
2010,07,20,14,28,22.00
2010,07,20,14,29,21.90
2010,07,20,14,30,21.90
2010,07,20,14,31,21.90
2010,07,20,14,32,21.90
2010,07,20,14,33,21.90
2010,07,20,14,34,21.90
2010,07,20,14,35,22.00
2010,07,20,14,36,22.10
2010,07,20,14,37,22.10
2010,07,20,14,38,22.20
2010,07,20,14,39,22.30
2010,07,20,14,40,22.30
2010,07,20,14,41,22.30
2010,07,20,14,42,22.40
2010,07,20,14,43,22.40
2010,07,20,14,44,22.40
2010,07,20,14,45,22.40
2010,07,20,14,46,22.50
2010,07,20,14,47,22.60
2010,07,20,14,48,22.70
2010,07,20,14,49,22.80
2010,07,20,14,50,22.90
2010,07,20,14,51,22.90
2010,07,20,14,52,22.90
2010,07,20,14,53,22.90
2010,07,20,14,54,22.80
2010,07,20,14,55,22.80
2010,07,20,14,56,22.80
2010,07,20,14,57,22.90
2010,07,20,14,58,22.90
2010,07,20,14,59,22.90
2010,07,20,15,00,22.90
2010,07,20,15,01,22.90
2010,07,20,15,02,22.90
2010,07,20,15,03,22.90
2010,07,20,15,04,22.90
2010,07,20,15,05,23.00
2010,07,20,15,06,23.10
2010,07,20,15,07,23.00
2010,07,20,15,08,23.00
2010,07,20,15,09,23.00
2010,07,20,15,10,23.00
2010,07,20,15,11,23.00
2010,07,20,15,12,23.00
2010,07,20,15,13,23.00
2010,07,20,15,14,23.00
2010,07,20,15,15,23.00
2010,07,20,15,16,23.00
2010,07,20,15,17,23.00
2010,07,20,15,18,23.00
2010,07,20,15,19,23.10
2010,07,20,15,20,23.10
2010,07,20,15,21,23.10
2010,07,20,15,22,23.10
2010,07,20,15,23,23.10
2010,07,20,15,24,23.10
2010,07,20,15,25,23.10
2010,07,20,15,26,23.10
2010,07,20,15,27,23.10
2010,07,20,15,28,23.20
2010,07,20,15,29,23.20
2010,07,20,15,30,23.30
2010,07,20,15,31,23.30
2010,07,20,15,32,23.40
2010,07,20,15,33,23.40
2010,07,20,15,34,23.50
2010,07,20,15,35,23.50
2010,07,20,15,36,23.60
2010,07,20,15,37,23.60
2010,07,20,15,38,23.60
2010,07,20,15,39,23.60
2010,07,20,15,40,23.60
2010,07,20,15,41,23.60
2010,07,20,15,42,23.70
2010,07,20,15,43,23.70
2010,07,20,15,44,23.80
2010,07,20,15,45,23.80
2010,07,20,15,46,23.90
2010,07,20,15,47,24.00
2010,07,20,15,48,24.00
2010,07,20,15,49,24.10
2010,07,20,15,50,24.00
2010,07,20,15,51,24.00
2010,07,20,15,52,24.00
2010,07,20,15,53,24.00
2010,07,20,15,54,24.10
2010,07,20,15,55,24.10
2010,07,20,15,56,24.20
2010,07,20,15,57,24.20
2010,07,20,15,58,24.20
2010,07,20,15,59,24.20
2010,07,20,16,00,24.20
2010,07,20,16,01,24.20
2010,07,20,16,02,24.20
2010,07,20,16,03,24.20
2010,07,20,16,04,24.20
2010,07,20,16,05,24.20
2010,07,20,16,06,24.20
2010,07,20,16,07,24.20
2010,07,20,16,08,24.20
2010,07,20,16,09,24.10
2010,07,20,16,10,24.20
2010,07,20,16,11,24.20
2010,07,20,16,12,24.30
2010,07,20,16,13,24.30
2010,07,20,16,14,24.20
2010,07,20,16,15,24.10
2010,07,20,16,16,24.00
2010,07,20,16,17,24.00
2010,07,20,16,18,24.00
2010,07,20,16,19,24.00
2010,07,20,16,20,24.00
2010,07,20,16,21,24.00
2010,07,20,16,22,23.90
2010,07,20,16,23,23.90
2010,07,20,16,24,23.90
2010,07,20,16,25,23.90
2010,07,20,16,26,23.90
2010,07,20,16,27,24.00
2010,07,20,16,28,24.00
2010,07,20,16,29,24.00
2010,07,20,16,30,23.90
2010,07,20,16,31,23.90
2010,07,20,16,32,24.00
2010,07,20,16,33,24.10
2010,07,20,16,34,24.20
2010,07,20,16,35,24.20
2010,07,20,16,36,24.30
2010,07,20,16,37,24.30
2010,07,20,16,38,24.40
2010,07,20,16,39,24.40
2010,07,20,16,40,24.40
2010,07,20,16,41,24.30
2010,07,20,16,42,24.30
2010,07,20,16,43,24.20
2010,07,20,16,44,24.10
2010,07,20,16,45,24.10
2010,07,20,16,46,24.00
2010,07,20,16,47,23.90
2010,07,20,16,48,23.90
2010,07,20,16,49,23.90
2010,07,20,16,50,24.00
2010,07,20,16,51,23.90
2010,07,20,16,52,23.90
2010,07,20,16,53,23.90
2010,07,20,16,54,23.90
2010,07,20,16,55,24.00
2010,07,20,16,56,24.10
2010,07,20,16,57,24.20
2010,07,20,16,58,24.30
2010,07,20,16,59,24.30
2010,07,20,17,00,24.40
2010,07,20,17,01,24.40
2010,07,20,17,02,24.50
2010,07,20,17,03,24.50
2010,07,20,17,04,24.50
2010,07,20,17,05,24.60
2010,07,20,17,06,24.60
2010,07,20,17,07,24.70
2010,07,20,17,08,24.70
2010,07,20,17,09,24.80
2010,07,20,17,10,24.90
2010,07,20,17,11,24.90
2010,07,20,17,12,24.90
2010,07,20,17,13,24.80
2010,07,20,17,14,24.80
2010,07,20,17,15,24.80
2010,07,20,17,16,24.80
2010,07,20,17,17,24.70
2010,07,20,17,18,24.70
2010,07,20,17,19,24.80